This is the latest recevied weather packets stored in our database for station/object WX4LTG. If no packets are shown the sender has not sent any weather packets the latest 10 day(s).
| Time | Temp. | Humidity | Pressure | Rain* | Wind** | Luminosity | Snow |
|---|---|---|---|---|---|---|---|
| 1777765034 | 32.78° C | 16% | 1009.5 hPa | 0 mm | - | 318 W/m² | - |
| 1777764731 | 32.78° C | 16% | 1009.9 hPa | 0 mm | - | 337 W/m² | - |
| 1777764427 | 32.78° C | 16% | 1009.7 hPa | 0 mm | - | 230 W/m² | - |
| 1777764125 | 33.33° C | 16% | 1009.9 hPa | 0 mm | - | 241 W/m² | - |
| 1777763821 | 33.33° C | 16% | 1009.7 hPa | 0 mm | - | 390 W/m² | - |
| 1777763519 | 34.44° C | 16% | 1009.8 hPa | 0 mm | - | 302 W/m² | - |
| 1777763217 | 33.33° C | 16% | 1009.8 hPa | 0 mm | - | 290 W/m² | - |
| 1777762915 | 34.44° C | 15% | 1009.6 hPa | 0 mm | - | 468 W/m² | - |
| 1777762610 | 33.33° C | 16% | 1009.7 hPa | 0 mm | - | 497 W/m² | - |
| 1777762308 | 33.33° C | 16% | 1009.8 hPa | 0 mm | - | 358 W/m² | - |
| 1777762004 | 33.89° C | 16% | 1010.1 hPa | 0 mm | - | 430 W/m² | - |
| 1777761701 | 33.89° C | 16% | 1010 hPa | 0 mm | - | 526 W/m² | - |
| 1777761399 | 33.33° C | 16% | 1010.2 hPa | 0 mm | - | 515 W/m² | - |
| 1777761097 | 33.33° C | 16% | 1010 hPa | 0 mm | - | 491 W/m² | - |
| 1777760794 | 33.33° C | 16% | 1010.5 hPa | 0 mm | - | 556 W/m² | - |
| 1777760491 | 33.33° C | 17% | 1010.2 hPa | 0 mm | - | 549 W/m² | - |
| 1777760186 | 33.89° C | 17% | 1010.3 hPa | 0 mm | - | 427 W/m² | - |
| 1777759884 | 33.89° C | 16% | 1010.6 hPa | 0 mm | - | 536 W/m² | - |
| 1777759580 | 33.33° C | 17% | 1010.7 hPa | 0 mm | - | 541 W/m² | - |
| 1777759276 | 33.33° C | 17% | 1010.4 hPa | 0 mm | - | 549 W/m² | - |
| 1777758974 | 33.33° C | 17% | 1010.7 hPa | 0 mm | - | 588 W/m² | - |
| 1777758670 | 32.78° C | 18% | 1010.6 hPa | 0 mm | - | 625 W/m² | - |
| 1777758367 | 33.33° C | 18% | 1010.6 hPa | 0 mm | - | 168 W/m² | - |
| 1777758064 | 34.44° C | 17% | 1010.8 hPa | 0 mm | - | 633 W/m² | - |
| 1777757761 | 34.44° C | 17% | 1011 hPa | 0 mm | - | 632 W/m² | - |
* Rain latest hour (hover to see other rain measurements)
** Current wind speed in m/s (hover to see current wind gust speed)